Regional Weather Roundup
Issued by NWS

Home | Current Version | Previous Version | Text Only | Print | Product List | Glossary On
Versions: 1 2 3 4 5 6 7 8 9 10 11 12 13 14 15 16 17 18 19 20 21 22 23 24 25 26 27 28 29 30 31 32 33 34 35 36 37 38 39 40 41 42 43 44 45 46 47 48 49 50
000
ASUS42 KTBW 020116
RWRFL
FLORIDA REGIONAL WEATHER ROUNDUP
NATIONAL WEATHER SERVICE TAMPA BAY RUSKIN FL
900 PM EDT TUE SEP 01 2015

NOTE: "FAIR" INDICATES FEW OR NO CLOUDS BELOW 12,000 FEET WITH NO
SIGNIFICANT WEATHER AND/OR OBSTRUCTIONS TO VISIBILITY.


FLZ001>010-012>015-112-114-115-020200-
PANHANDLE FLORIDA

CITY           SKY/WX    TMP DP  RH WIND       PRES   REMARKS
PENSACOLA      MOCLDY    84  70  62 W7        30.02R
PENSACOLA NAS  MOCLDY    81  71  71 W5        30.01S
MILTON NAS     MOCLDY    82  69  64 W7        30.03R
CRESTVIEW      PTCLDY    85  71  63 W3        30.04R
DUKE FIELD     PTCLDY    85  69  59 W3        30.02R
VALPARAISO     MOCLDY    85  72  65 CALM      30.02R
MARY ESTHER    PTCLDY    85  71  63 W1        30.00S
PANAMA CITY    FAIR      83  73  72 CALM      30.01R
TYNDALL AFB    RAIN      83  77  82 S7        30.02R
APALACHICOLA   PTCLDY    77  76  96 N5        30.02R

STATION/POSITION SKY/WX   TEMP    WIND        PRES    WAVE   SWELL
                          AIR SEA DIR/SP/G            HT/PER HT/PER
                          (F)     (DEG/KT/KT) (MB)    (FT/S) (FT/S)
30.1N   87.6W              85 87  240/  6/  8 1016.0S   1/ 6   2/ 6
29.2N   88.2W              84 87  100/  6/  8 1016.9F   1/ 6   2/ 6
28.8N   86.0W              82 86   80/  4/  6 1016.9R   3/ 5   2/ 5
PANAMA CITY BEAC           85 86  240/  8/  9 1016.0F
CAPE SAN BLAS    NOT AVBL
TOWER C                    80      80/ 10/ 11 1016.5R
28.5N   84.5W              81 86  120/  4/  6 1016.7R   2/ 5   2/ 5

$$
FLZ011-016>038-118-127-128-134-139-239-020200-
NORTH FLORIDA

CITY           SKY/WX    TMP DP  RH WIND       PRES   REMARKS
MARIANNA       CLEAR     85  70  60 SE3       30.02R
TALLAHASSEE    MOCLDY    81  74  79 CALM      30.03R
PERRY          LGT RAIN  78  76  93 SE5       30.05R
CROSS CITY       N/A     79  76  90 VRB3      30.04R
LAKE CITY      FAIR      77  77 100 CALM      30.06R
GAINESVILLE    CLOUDY    77  74  90 CALM      30.06R
MAYPORT NAS    CLOUDY    81  77  88 CALM      30.06R
JACKSONVILLE   TSTM      78  76  93 NE3       30.05S
JAX NAS        CLOUDY    85  77  77 CALM      30.06R HX  95
JAX CRAIG      CLOUDY    82  76  81 CALM      30.06R
JAX CECIL      CLEAR     77  75  94 CALM      30.06R
FERNANDINA BEA CLOUDY    82  79  89 SE6       30.05R THUNDER
ST AUGUSTINE   MOCLDY    81  77  88 W3        30.07R

STATION/POSITION SKY/WX   TEMP    WIND        PRES    WAVE   SWELL
                          AIR SEA DIR/SP/G            HT/PER HT/PER
                          (F)     (DEG/KT/KT) (MB)    (FT/S) (FT/S)
SHELL POINT                78      10/  4/  5   N/A
KEATON BEACH               78      70/  8/  9 1017.2R
CEDAR KEY                  82     180/ 11/ 13 1017.7R
FERNANDINA                 82 86   50/  5/  9 1016.9F
30.7N   81.3W                 86                N/A     2/ 7
MAYPORT                    83 86  240/  4/  5 1017.7R
31.4N   80.9W              81 84  140/  6/  8 1018.2R   2/ 8   2/ 8
ST AUGUSTINE               83 84  210/  3/  4 1018.6R

$$
FLZ040-043>046-052-053-057-058-063-144-020200-
INTERIOR CENTRAL FLORIDA

CITY           SKY/WX    TMP DP  RH WIND       PRES   REMARKS
OCALA          MOCLDY    79  73  83 CALM      30.06R
THE VILLAGES     N/A     81  75  83 CALM      29.96R
LEESBURG       LGT RAIN  79  76  90 CALM      30.07R
SANFORD        MOCLDY    83  75  77 E5        30.06R
ORLANDO EXEC   MOCLDY    82  76  81 E3        30.07R
ORLANDO INTL   MOCLDY    83  75  77 SE3       30.07R
KISSIMMEE      CLEAR     82  77  83 CALM      30.07R
WINTER HAVEN   MOCLDY    80  75  84 CALM      30.07S
LAKELAND       CLEAR    N/A N/A N/A CALM      30.06S
BARTOW         FAIR      77  77 100 CALM      30.07R
OKEECHOBEE     PTCLDY    81  75  83 SE7       30.07R

$$
FLZ041-047-054-059-064-141-147-020200-
EAST CENTRAL FLORIDA

CITY           SKY/WX    TMP DP  RH WIND       PRES   REMARKS
DAYTONA BEACH  MOCLDY    81  78  91 E3        30.06R
DELAND           N/A     81  75  83 CALM      30.08R
NEW SMYRNA BEA PTCLDY    84  73  70 E7        30.07R
JFK SPACE CTR  MOCLDY    82  76  82 SE6       30.05R
TITUSVILLE     PTCLDY    82  79  89 SE8       30.07R
CAPE CANAVERAL MOCLDY    83  76  79 SE8       30.05R
PATRICK AFB    MOCLDY    84  78  80 SE12      30.05S HX  95
MELBOURNE      MOCLDY    84  76  76 SE10      30.06R
VERO BEACH     PTCLDY    84  75  74 E7        30.06S
FT PIERCE      PTCLDY    84  76  76 SE8       30.06R
STUART         CLEAR     81  73  78 SE7       30.07S

STATION/POSITION SKY/WX   TEMP    WIND        PRES    WAVE   SWELL
                          AIR SEA DIR/SP/G            HT/PER HT/PER
                          (F)     (DEG/KT/KT) (MB)    (FT/S) (FT/S)
28.5N   80.2W              85 85  120/ 10/ 10 1018.1R
28.9N   78.5W              85 87   CALM  /  2 1018.8R
TRIDENT PIER               83 87  120/  5/  9 1018.2R
28.4N   80.5W                 86                N/A     2/10
27.5N   80.2W                 85                N/A     2/10

$$
FLZ050-056-061-142-242-148-248-149-249-151-251-155-255-
160-260-020200-
WEST CENTRAL FLORIDA

CITY           SKY/WX    TMP DP  RH WIND       PRES   REMARKS
CRYSTAL RIVER  FAIR      77  75  94 CALM      30.06R
INVERNESS      FAIR      77  77 100 CALM      30.06R
BROOKSVILLE    PTCLDY    78  76  93 CALM      30.06R
CLEARWATER     PTCLDY    80  75  84 S3        30.05R
TAMPA INTL     CLOUDY    83  74  74 SE3       30.05S
TAMPA EXEC     MOCLDY    81  77  89 CALM      30.06R
PLANT CITY     MOCLDY    82  79  89 CALM      30.08R
MACDILL AFB    PTCLDY    81  78  91 CALM      30.05R
PETER O KNIGHT PTCLDY    82  77  83 CALM      30.06R
ST PETERSBURG  PTCLDY    82  75  79 SW5       30.03S
SARASOTA       MOCLDY    82  76  81 CALM      30.04S
VENICE         FAIR      84  77  79 N3        30.05S

STATION/POSITION SKY/WX   TEMP    WIND        PRES    WAVE   SWELL
                          AIR SEA DIR/SP/G            HT/PER HT/PER
                          (F)     (DEG/KT/KT) (MB)    (FT/S) (FT/S)
CEDAR KEY                  82     180/ 11/ 13 1017.7R
28.5N   84.5W              81 86  120/  4/  6 1016.7R   2/ 5   2/ 5
27.3N   84.2W                 86                N/A     2/ 5
CLEARWATER BEACH           82 85  150/  6/  8 1017.3R
MIDDLE TAMPA BAY                  240/  5/  6 1017.7R
VENICE                     83 88   10/  3/  4 1017.0S

$$
FLZ066-069-070-075>078-162-262-165-265-020200-
SOUTHWEST FLORIDA AND KEYS

CITY           SKY/WX    TMP DP  RH WIND       PRES   REMARKS
PUNTA GORDA    MOCLDY    82  78  88 CALM      30.06S
FT MYERS       MOCLDY    84  76  76 VRB3      30.04R
SOUTHWEST INTL CLOUDY    83  76  79 SE6       30.05R
NAPLES         CLOUDY    83  75  77 E6        30.06R
MARCO ISLAND   MOCLDY    81  72  74 NE5       30.06R
MARATHON       CLEAR     86  77  74 E7        30.05R HX  97
KEY WEST NAS   CLEAR     86  77  74 E10       30.04R HX  97
KEY WEST INTL  CLEAR     86  77  74 E7        30.04R HX  97

STATION/POSITION SKY/WX   TEMP    WIND        PRES    WAVE   SWELL
                          AIR SEA DIR/SP/G            HT/PER HT/PER
                          (F)     (DEG/KT/KT) (MB)    (FT/S) (FT/S)
VENICE                     83 88   10/  3/  4 1017.0S
NAPLES                        87              1018.2S
26.0N   85.6W              83 87   40/  2/  4 1016.6R   2/ 6   2/ 6
DRY TORTUGAS                                    N/A
NW FL BAY                  86      60/  9/ 11 1017.0
SAND KEY                   86      60/  7     1017.2R
LONG KEY                   85 87   90/  7/  8 1018.8R
MOLASSES REEF              85 87   90/  7/  7 1017.8R

$$
FLZ067-068-071>074-168-172>174-020200-
SOUTHEAST FLORIDA

CITY           SKY/WX    TMP DP  RH WIND       PRES   REMARKS
W PALM BEACH   PTCLDY    84  74  71 E6        30.08R
FT LAUDER-EXEC MOCLDY    86  75  69 E10       30.06R HX  95
FT LAUDERDALE  PTCLDY    84  76  76 SE7       30.06R
POMPANO BEACH  CLEAR     86  74  67 E8        30.06R
PEMBROKE PINES MOCLDY    83  75  77 N3        30.08R
OPA LOCKA      CLEAR     83  75  77 NE3       30.07R
MIAMI          PTCLDY    83  75  77 N3        30.06S
WEST KENDALL   CLEAR     81  73  76 NE5       30.07R
HOMESTEAD      CLEAR     83  77  81 E3        30.06R

STATION/POSITION SKY/WX   TEMP    WIND        PRES    WAVE   SWELL
                          AIR SEA DIR/SP/G            HT/PER HT/PER
                          (F)     (DEG/KT/KT) (MB)    (FT/S) (FT/S)
PORT EVERGLADES            86      90/  4/  9 1018.1R
VIRGINIA KEY               85 87   90/  5/  6 1017.4R
LAKE WORTH                 85 88  110/  8/  9 1017.4F
SETTLEMENT POINT           85      70/  8/  9 1019.3R

$$



USA.gov is the U.S. government's official web portal to all federal, state and local government web resources and services.